| time (UTC) | temp F | wind direction | speed MPH | gust MPH | rain 1hr in | rain 24hr in | rain mn in | humidity % | barometer mb |
| 20260502122929 | 74 | 323 | 1.0 | 2.0 | 0.00 | 0.00 | 0.00 | 89 | 1008.7 |
| 20260502121928 | 74 | 263 | 1.0 | 2.0 | 0.00 | 0.00 | 0.00 | 88 | 1008.7 |
| 20260502115929 | 74 | 306 | 0.0 | 2.0 | 0.00 | 0.00 | 0.00 | 87 | 1008.6 |
| 20260502114929 | 75 | 318 | 0.0 | 1.0 | 0.00 | 0.00 | 0.00 | 88 | 1008.5 |
| 20260502113929 | 75 | 314 | 0.0 | 2.0 | 0.00 | 0.00 | 0.00 | 88 | 1008.5 |
| 20260502112930 | 75 | 326 | 0.0 | 1.0 | 0.00 | 0.00 | 0.00 | 88 | 1008.5 |
| 20260502111933 | 75 | 214 | 0.0 | 2.0 | 0.00 | 0.00 | 0.00 | 88 | 1008.4 |
| 20260502105929 | 75 | 114 | 0.0 | 3.0 | 0.00 | 0.00 | 0.00 | 88 | 1008.4 |
| 20260502104929 | 75 | 309 | 2.0 | 3.0 | 0.00 | 0.00 | 0.00 | 88 | 1008.4 |
| 20260502103929 | 75 | 258 | 0.0 | 1.0 | 0.00 | 0.00 | 0.00 | 88 | 1008.3 |
| 20260502102929 | 75 | 243 | 0.0 | 1.0 | 0.00 | 0.00 | 0.00 | 87 | 1008.6 |
| 20260502100930 | 76 | 345 | 1.0 | 2.0 | 0.00 | 0.00 | 0.00 | 87 | 1008.5 |
| 20260502090929 | 78 | 326 | 1.0 | 2.0 | 0.00 | 0.00 | 0.00 | 84 | 1008.6 |
| 20260502070929 | 80 | 237 | 0.0 | 1.0 | 0.00 | 0.00 | 0.00 | 81 | 1009.6 |
| 20260502065929 | 81 | 290 | 0.0 | 1.0 | 0.00 | 0.00 | 0.00 | 81 | 1009.7 |
| 20260502062918 | 82 | 284 | 0.0 | 2.0 | 0.00 | 0.00 | 0.00 | 79 | 1009.8 |
| 20260502060918 | 82 | 124 | 0.0 | 1.0 | 0.00 | 0.00 | 0.00 | 77 | 1009.7 |
| 20260502055918 | 82 | 220 | 0.0 | 2.0 | 0.00 | 0.00 | 0.00 | 77 | 1009.8 |
| 20260502054918 | 82 | 75 | 0.0 | 2.0 | 0.00 | 0.00 | 0.00 | 76 | 1009.8 |
| 20260502051918 | 82 | 193 | 0.0 | 2.0 | 0.00 | 0.00 | 0.00 | 75 | 1009.4 |
| 20260502050918 | 83 | 146 | 0.0 | 2.0 | 0.00 | 0.00 | 0.00 | 75 | 1009.4 |
| 20260502045918 | 83 | 164 | 0.0 | 2.0 | 0.00 | 0.00 | 0.00 | 75 | 1009.2 |
| 20260502044918 | 83 | 212 | 0.0 | 2.0 | 0.00 | 0.00 | 0.00 | 74 | 1009.2 |
| 20260502042922 | 83 | 150 | 0.0 | 2.0 | 0.00 | 0.00 | 0.00 | 74 | 1008.7 |
| 20260502035918 | 83 | 305 | 0.0 | 2.0 | 0.00 | 0.00 | 0.00 | 74 | 1008.5 |
| 20260502033918 | 83 | 250 | 0.0 | 2.0 | 0.00 | 0.00 | 0.00 | 74 | 1008.3 |
| 20260502031918 | 83 | 79 | 1.0 | 2.0 | 0.00 | 0.00 | 0.00 | 73 | 1007.9 |
| 20260502030918 | 83 | 286 | 0.0 | 2.0 | 0.00 | 0.00 | 0.00 | 73 | 1008.1 |
| 20260502025918 | 83 | 20 | 1.0 | 2.0 | 0.00 | 0.00 | 0.00 | 73 | 1007.8 |
| 20260502024918 | 83 | 120 | 1.0 | 2.0 | 0.00 | 0.00 | 0.00 | 73 | 1007.7 |
| 20260502023918 | 83 | 274 | 0.0 | 3.0 | 0.00 | 0.00 | 0.00 | 73 | 1007.6 |
| 20260502021918 | 83 | 293 | 0.0 | 2.0 | 0.00 | 0.00 | 0.00 | 74 | 1007.3 |
| 20260502020918 | 83 | 281 | 0.0 | 2.0 | 0.00 | 0.00 | 0.00 | 74 | 1007.0 |
| 20260502015917 | 83 | 247 | 0.0 | 2.0 | 0.00 | 0.00 | 0.00 | 74 | 1007.1 |
| 20260502013919 | 83 | 256 | 0.0 | 3.0 | 0.00 | 0.00 | 0.00 | 74 | 1006.9 |
| 20260502012918 | 83 | 267 | 2.0 | 3.0 | 0.00 | 0.00 | 0.00 | 74 | 1006.8 |
| 20260502011917 | 83 | 242 | 2.0 | 4.0 | 0.00 | 0.00 | 0.00 | 73 | 1006.6 |
| 20260502010918 | 83 | 244 | 0.0 | 3.0 | 0.00 | 0.00 | 0.00 | 73 | 1006.4 |
| 20260502005917 | 84 | 129 | 0.0 | 3.0 | 0.00 | 0.00 | 0.00 | 72 | 1006.5 |
| 20260502004917 | 84 | 257 | 2.0 | 4.0 | 0.00 | 0.00 | 0.00 | 72 | 1006.6 |
| 20260502003918 | 84 | 223 | 3.0 | 5.0 | 0.00 | 0.00 | 0.00 | 72 | 1006.1 |
| 20260502001918 | 85 | 249 | 2.0 | 5.0 | 0.00 | 0.00 | 0.00 | 71 | 1005.9 |
| 20260502000917 | 85 | 253 | 1.0 | 6.0 | 0.00 | 0.00 | 0.00 | 71 | 1006.1 |
| 20260501235918 | 85 | 229 | 3.0 | 6.0 | 0.00 | 0.00 | 0.00 | 71 | 1006.0 |
| 20260501233918 | 86 | 271 | 2.0 | 10.0 | 0.00 | 0.00 | 0.00 | 69 | 1006.0 |
| 20260501231918 | 85 | 187 | 3.0 | 11.0 | 0.00 | 0.00 | 0.00 | 72 | 1005.8 |
| 20260501230918 | 85 | 159 | 7.0 | 10.0 | 0.00 | 0.00 | 0.00 | 71 | 1005.8 |
| 20260501224918 | 85 | 218 | 4.0 | 11.0 | 0.00 | 0.00 | 0.00 | 68 | 1005.8 |
| 20260501222918 | 85 | 170 | 9.0 | 9.0 | 0.00 | 0.00 | 0.00 | 67 | 1005.9 |
| 20260501221918 | 85 | 265 | 2.0 | 10.0 | 0.00 | 0.00 | 0.00 | 69 | 1006.0 |
| 20260501220915 | 85 | 169 | 9.0 | 12.0 | 0.00 | 0.00 | 0.00 | 71 | 1006.2 |
| 20260501215914 | 85 | 168 | 9.0 | 12.0 | 0.00 | 0.00 | 0.00 | 71 | 1006.3 |
| 20260501214915 | 86 | 148 | 7.0 | 15.0 | 0.00 | 0.00 | 0.00 | 69 | 1006.1 |
| 20260501213915 | 86 | 300 | 2.0 | 12.0 | 0.00 | 0.00 | 0.00 | 70 | 1006.2 |
| 20260501212915 | 86 | 194 | 3.0 | 15.0 | 0.00 | 0.00 | 0.00 | 70 | 1006.3 |
| 20260501210914 | 85 | 163 | 6.0 | 14.0 | 0.00 | 0.00 | 0.00 | 72 | 1006.8 |
| 20260501205914 | 87 | 126 | 3.0 | 10.0 | 0.00 | 0.00 | 0.00 | 68 | 1006.6 |
| 20260501204918 | 87 | 242 | 3.0 | 9.0 | 0.00 | 0.00 | 0.00 | 66 | 1006.8 |
| 20260501203915 | 89 | 229 | 3.0 | 7.0 | 0.00 | 0.00 | 0.00 | 66 | 1006.9 |
| 20260501201914 | 87 | 259 | 3.0 | 10.0 | 0.00 | 0.00 | 0.00 | 69 | 1007.3 |
| 20260501200914 | 87 | 238 | 2.0 | 10.0 | 0.00 | 0.00 | 0.00 | 68 | 1007.5 |
| 20260501195914 | 87 | 122 | 2.0 | 12.0 | 0.00 | 0.00 | 0.00 | 69 | 1007.6 |
| 20260501193915 | 86 | 171 | 8.0 | 9.0 | 0.00 | 0.00 | 0.00 | 71 | 1008.0 |
| 20260501192915 | 86 | 182 | 3.0 | 8.0 | 0.00 | 0.00 | 0.00 | 70 | 1008.3 |
| 20260501191915 | 87 | 142 | 2.0 | 13.0 | 0.00 | 0.00 | 0.00 | 70 | 1008.4 |
| 20260501184915 | 86 | 232 | 1.0 | 12.0 | 0.00 | 0.00 | 0.00 | 71 | 1009.0 |
| 20260501183915 | 85 | 162 | 8.0 | 10.0 | 0.00 | 0.00 | 0.00 | 70 | 1009.1 |
| 20260501182915 | 86 | 116 | 3.0 | 9.0 | 0.00 | 0.00 | 0.00 | 70 | 1008.9 |
| 20260501181915 | 86 | 332 | 2.0 | 13.0 | 0.00 | 0.00 | 0.00 | 71 | 1009.3 |
| 20260501180915 | 85 | 178 | 4.0 | 13.0 | 0.00 | 0.00 | 0.00 | 72 | 1009.4 |
| 20260501175915 | 85 | 198 | 7.0 | 12.0 | 0.00 | 0.00 | 0.00 | 73 | 1009.5 |
| 20260501174915 | 86 | 196 | 5.0 | 12.0 | 0.00 | 0.00 | 0.00 | 70 | 1009.4 |
| 20260501173915 | 87 | 187 | 3.0 | 9.0 | 0.00 | 0.00 | 0.00 | 67 | 1009.6 |
| 20260501172915 | 87 | 158 | 5.0 | 12.0 | 0.00 | 0.00 | 0.00 | 68 | 1009.5 |
| 20260501171914 | 87 | 77 | 2.0 | 10.0 | 0.00 | 0.00 | 0.00 | 67 | 1009.8 |
| 20260501170914 | 86 | 147 | 2.0 | 9.0 | 0.00 | 0.00 | 0.00 | 68 | 1009.7 |
| 20260501165914 | 87 | 180 | 3.0 | 10.0 | 0.00 | 0.00 | 0.00 | 66 | 1009.8 |
| 20260501164914 | 87 | 120 | 2.0 | 9.0 | 0.00 | 0.00 | 0.00 | 66 | 1009.8 |
| 20260501163914 | 87 | 221 | 5.0 | 8.0 | 0.00 | 0.00 | 0.00 | 62 | 1010.0 |
| 20260501161914 | 86 | 165 | 4.0 | 9.0 | 0.00 | 0.00 | 0.00 | 61 | 1010.2 |
| 20260501160914 | 87 | 199 | 4.0 | 9.0 | 0.00 | 0.00 | 0.00 | 59 | 1010.0 |
| 20260501155914 | 87 | 284 | 2.0 | 7.0 | 0.00 | 0.00 | 0.00 | 58 | 1010.1 |
| 20260501153914 | 86 | 162 | 2.0 | 6.0 | 0.00 | 0.00 | 0.00 | 61 | 1010.3 |
| 20260501151913 | 85 | 183 | 0.0 | 6.0 | 0.00 | 0.00 | 0.00 | 62 | 1010.0 |
| 20260501145913 | 83 | 100 | 3.0 | 5.0 | 0.00 | 0.00 | 0.00 | 69 | 1010.1 |
| 20260501144913 | 83 | 205 | 0.0 | 4.0 | 0.00 | 0.00 | 0.00 | 69 | 1009.8 |
| 20260501143913 | 83 | 163 | 4.0 | 5.0 | 0.00 | 0.00 | 0.00 | 71 | 1009.7 |
| 20260501141913 | 82 | 123 | 2.0 | 4.0 | 0.00 | 0.00 | 0.00 | 73 | 1009.6 |